Location: Haram ta Haram Freeway
(35.0583°N, 51.4202°E)
Time: 13:32:12
(UTC+03:30)

Envisat - Pass Details

Date: 08 October 2022
Orbit: 763 x 765 km, 98.2° (Epoch: 02 December)

Event Time Altitude Azimuth Distance (km) Brightness Sun altitude
Rises 04:23:37 0° 11° (NNE) 3,236 6.5 -21.4°
Reaches altitude 10° 04:25:55 10° 11° (N) 2,305 5.7 -20.9°
Maximum altitude 04:31:00 85° 285° (WNW) 771 2.9 -19.9°
Drops below altitude 10° 04:36:04 10° 196° (SSW) 2,290 5.2 -18.9°
Sets 04:38:21 0° 195° (SSW) 3,212 6.0 -18.4°
